Other Public Products
Issued by NWS Grand Forks, ND

Home | Current Version | Previous Version | Graphics & Text | Print | Product List | Glossary On
Versions: 1 2 3 4 5 6 7 8 9 10 11 12 13 14 15 16 17 18 19 20 21 22 23 24 25 26 27 28 29 30 31 32 33 34 35 36 37 38 39 40 41 42 43 44 45 46 47 48 49 50
054
FPUS83 KFGF 100231
OPUFGF
PRAIRIE TO PINES WEATHER ROUNDUP
NATIONAL WEATHER SERVICE EASTERN NORTH DAKOTA/GRAND FORKS ND
800 PM CST TUE FEB 09 2016

 **SATELLITE DATA USED TO AUGMENT SKY COVER AT AUTOMATED STATIONS**
 *****  WEATHER ACROSS EASTERN NORTH DAKOTA  *****

CITY           SKY/WX    TMP DP  RH WIND       PRES   REMARKS
GRAND FORKS    CLOUDY     5  -1  76 N7        30.27S WCI  -7
GRAND FORKS AF FLURRIES   3  -2  78 NE8       30.26S WCI -10
GRAND CITY NWS NOT AVBL
BUXTON           N/A      6   2  82 N6          N/A  WCI  -4
DEVILS LAKE    CLOUDY    11   5  77 E10       30.19F WCI  -3
FARGO          CLOUDY    11   3  70 NE6       30.23F WCI   1
WAHPETON ARPT  CLOUDY    12   5  73 N10       30.22F WCI  -1
$$

 *****  WEATHER ACROSS CENTRAL AND WESTERN NORTH DAKOTA  *****

CITY           SKY/WX    TMP DP  RH WIND       PRES   REMARKS
JAMESTOWN      CLOUDY    15   8  73 E8        30.14F WCI   4
BISMARCK       CLOUDY    35  22  58 CALM      30.09F
MINOT          FLURRIES  24  15  68 E14       30.10F WCI  12
MINOT AFB      LGT SNOW  21  18  86 SE14      30.08F WCI   8
GARRISON         N/A     32  21  64 CALM      30.07F
WILLISTON      PTCLDY    31  23  72 CALM      30.04F
DICKINSON      PTCLDY    27  20  75 E8        30.02F WCI  19
HETTINGER      PTCLDY    31  19  61 E3        30.06F
$$

 *****  OTHER OBSERVATIONS NORTHEAST NORTH DAKOTA  *****

CITY           SKY/WX    TMP DP  RH WIND       PRES   REMARKS
WALHALLA       FAIR       3   1  92 CALM      30.25F
LANGDON        FAIR       5   0  78 NE6       30.18F WCI  -6
CAVALIER       FAIR       3   0  85 N7        30.26F WCI  -9
GRAFTON        FAIR       3  -2  78 N10       30.29F WCI -12
CANDO          CLOUDY    10   5  79 E9        30.20F WCI  -2
FORT TOTTEN      N/A     11   4  74 E5        29.95S WCI   3
ROLLA          CLOUDY     9   1  72 E9        30.15F WCI  -5
RUGBY          MOCLDY    12   9  85 E13       30.16F WCI  -3
 ***** THE ABOVE OBSERVATIONS ARE NON NWS ARE NOT QUALITY
        CONTROLLED AND MAY MIS-REPORT RAIN FOR SNOW...
$$

 *****  OTHER OBSERVATIONS SOUTHEAST NORTH DAKOTA *****

CITY           SKY/WX    TMP DP  RH WIND       PRES   REMARKS
COOPERSTOWN    NOT AVBL
VALLEY CITY    CLOUDY    12   5  73 E5        30.20F WCI   4
OAKES          MOCLDY    16  10  79 E9        30.17F WCI   4
GWINNER        MOCLDY    18  12  79 NE9       30.19F WCI   6
BUFFALO          N/A     11   3  71 N8          N/A  WCI  -1
WYNDMERE         N/A     12   7  79 N7          N/A  WCI   2
 ***** THE ABOVE OBSERVATIONS ARE NON NWS ARE NOT QUALITY
       CONTROLLED AND MAY MIS-REPORT RAIN FOR SNOW...
$$

  *****  WEATHER ACROSS NORTHERN MINNESOTA  *****

CITY           SKY/WX    TMP DP  RH WIND       PRES   REMARKS
FLAG ISLAND    CLOUDY    -2  -9  71 NW9       30.20F WCI -18
WARROAD        CLOUDY     0  -8  71 NW6       30.22R WCI -12
ROSEAU         CLOUDY    -2  -9  71 NW7       30.23R WCI -16
HALLOCK        CLOUDY     1  -4  78 N9        30.27F WCI -14
THF RVR FALLS  CLOUDY     0  -6  78 N8        30.23R WCI -15
HALSTAD          N/A      4   1  87 N9          N/A  WCI -10
FOSSTON          N/A     -9 -15  77 CALM      30.20R
BAUDETTE       CLOUDY    -1 -10  65 N7        30.17F WCI -14
WASKISH        CLOUDY    -2  -8  78 CALM      30.17S
CROOKSTON      CLOUDY     1  -2  85 N9        30.27R WCI -14
$$
  *****  WEATHER ACROSS CENTRAL AND WEST MINNESOTA  *****

CITY           SKY/WX    TMP DP  RH WIND       PRES   REMARKS
BEMIDJI        CLOUDY    -3  -7  84 W5        30.15F WCI -14
PARK RAPIDS    CLOUDY     1  -7  68 NW5       30.13F WCI  -9
WADENA         CLOUDY     1  -2  85 NW6       30.15S WCI -10
DETROIT LAKES  CLOUDY     3   0  85 NW7       30.17F WCI  -9
MOORHEAD       CLEAR      7   1  78 N6        30.24S WCI  -3
FERGUS FALLS   CLOUDY     7   1  78 N8        30.23F WCI  -6
ELBOW LAKE     CLOUDY    10   3  74 NW8       30.19S HAZE    WCI  -3
MORRIS MN      CLOUDY    12   5  73 NW12      30.18F WCI  -2
STAPLES        CLOUDY     1  -4  78 NW6       30.14F WCI -10
WHEATON        CLOUDY    12   9  85 NW3       30.22F
$$
  *****  WEATHER ELSEWHERE ACROSS MINNESOTA  *****

CITY           SKY/WX    TMP DP  RH WIND       PRES   REMARKS
DULUTH         CLEAR      2  -7  66 N12       30.05S WCI -15
INTRNTL FALLS  CLOUDY    -4  -9  79 NW8       30.15F WCI -19
ELY            CLOUDY     0  -6  78 N7        30.07F WCI -13
CLOQUET        CLEAR      3  -8  60 NW13G20   30.08S WCI -14
BRAINERD       CLEAR      4  -6  63 N9        30.14F WCI -10
HIBBING        CLEAR     -2  -9  72 NW10      30.09F WCI -19
ALEXANDRIA     CLEAR      6  -2  69 NW9       30.15F WCI  -8
SAINT CLOUD    CLEAR      8  -2  63 NW7       30.14F WCI  -3
MINNEAPOLIS    PTCLDY    12  -2  53 NW9       30.15S WCI   0
$$

  *****  WEATHER ACROSS SOUTH DAKOTA  *****

CITY           SKY/WX    TMP DP  RH WIND       PRES   REMARKS
SIOUX FALLS    CLOUDY    22  14  71 CALM      30.18F
BROOKINGS      CLOUDY    20  13  74 CALM      30.15F
WATERTOWN      CLOUDY    19  10  68 NE6       30.14F WCI  11
HURON          MOCLDY    26  16  65 S7        30.15F WCI  18
SISSETON         N/A     15   9  76 NE7       30.19F WCI   5
ABERDEEN       CLOUDY    25  14  63 E5        30.15F WCI  19
MITCHELL       CLOUDY    28  16  60 S6        30.18F WCI  22
PIERRE         CLOUDY    32  23  69 S3        30.10F
MOBRIDGE       CLOUDY    33  21  61 SE6       30.07F
RAPID CITY     CLEAR     31  26  82 CALM      30.10S
$$

  *****  SOME WEATHER IN NEARBY STATES *****

CITY           SKY/WX    TMP DP  RH WIND       PRES   REMARKS
GLASGOW MT     CLEAR     40  31  70 W7        30.02F
GREAT FALLS MT PTCLDY    45  24  43 SW15      30.12F
CHEYENNE WY    CLEAR     41  20  43 W9        30.27R
SCOTTSBLUFF NE CLEAR     41  29  62 W16       30.19F
OMAHA NE       CLOUDY    24  15  68 NW7       30.26S WCI  16
DES MOINES IA  CLEAR     17   7  64 N13       30.18S WCI   4
DAVENPORT IA   CLEAR     12   3  67 NW16      30.07R WCI  -5
CHICAGO IL     LGT SNOW  15   8  73 W13       29.94R WCI   1
EAU CLAIRE WI  CLEAR     10  -6  48 NW9       30.06R WCI  -3
LA CROSSE WI   CLEAR      7  -4  60 NW8       30.07S WCI  -6
$$

  *****  SOME NATIONAL WEATHER *****

CITY           SKY/WX    TMP DP  RH WIND       PRES   REMARKS
LA GUARDIA NY  FLURRIES  34  24  67 SE7       29.62S
RALEIGH NC     MOCLDY    34  10  37 W8G16     29.80R
ATLANTA GA     MOCLDY    30  18  60 NW16      29.99R WCI  19
NEW ORLEANS LA CLEAR     47  23  38 NW6       30.17R
OKLAHOMA CITY  MOCLDY    41  19  41 N7        30.30R
ALBUQUERQUE NM CLEAR     53  18  25 NE10      30.35R
SALT LAKE CITY CLEAR     34  28  79 CALM      30.50S HAZE
LOS ANGELES CA PTCLDY    72  35  25 W6        30.07S
BOISE ID       CLEAR     38  32  79 SW3       30.44S
SEATTLE WA     CLOUDY    58  42  55 SE9       30.14R
$$

*** WEATHER ACROSS MANITOBA...SASKATCHEWAN AND ONTARIO ***
                ***ONTARIO***

CITY           SKY/WX    TMP DP  RH WIND       PRES   REMARKS
GERALDTON      PTCLDY    -6 -13  71 NW12      29.99S WCI -24
THUNDER BAY    FLURRIES   1  -9  60 N14G23    30.10S WCI -17
SIOUX LOOKOUT  PTCLDY    -8 -15  71 N9        30.14F WCI -25
TORONTO        FLURRIES  30  25  80 SW10      29.50S WCI  21
BIG TROUT LK   FLURRIES -18 -24  76 NW8       30.22S WCI -37
PICKLE LAKE    CRYSTALS -15 -22  70 NW5       30.13S WCI -27
DRYDEN         MOCLDY    -8 -11  84 N7        30.14S WCI -22
KENORA         CLEAR     -2  -9  71 N8        30.17S WCI -17
$$
                *** MANITOBA***

CITY           SKY/WX    TMP DP  RH WIND       PRES   REMARKS
BRANDON        CLOUDY     7   3  85 E10       30.19F WCI  -8
DAUPHIN        CLOUDY     5   0  78 E8        30.24F WCI  -8
ISLAND LAKE    CLEAR    -18 -24  76 CALM      30.29F
PILOT MOUND      N/A      3  -2  78 NE6         N/A  WCI  -8
THE PAS        CLOUDY    -6 -13  71 SE5       30.22F WCI -17
THOMPSON       PTCLDY   -26 -31  75 CALM      30.30F
WINNIPEG       PTCLDY    -4  -9  77 NE3       30.29F
LYNN LAKE      FLURRIES  -8 -13  77 SE8       30.17F WCI -23
CHURCHILL      CRYSTALS -26 -33  68 NW7       30.36F WCI -44
GILLAM         CLEAR    -18 -26  69 W6        30.32F WCI -33
$$
                ***SASKATCHEWAN***

CITY           SKY/WX    TMP DP  RH WIND       PRES   REMARKS
ESTEVAN        CLOUDY    27  21  80 SE14      30.03F WCI  15
KINDERSLEY     PTCLDY    36  30  80 W6        29.92
LLOYDMINSTER   MOCLDY    37  30  75 W12       29.88S
PRINCE ALBERT  FLURRIES  16  12  86 E9        29.99F WCI   4
REGINA         MOCLDY    28  25  86 SE15      29.96F WCI  17
YORKTON        LGT SNOW  12  10  92 E9        30.10F WCI   0
N. BATTLEFORD  MOCLDY    30  28  93 E10       29.92F WCC1F1C2F2C3F3C4F4C5F5C6F6C7F7C8F8C9F9CaFaCbFbCcFcCdFdCe!



USA.gov is the U.S. government's official web portal to all federal, state and local government web resources and services.